LUSAT (LO-19) (20442 NORAD) Tracking and Keplerian Element Data

This shows tracking and keplerian element data for the satellite.

Feedback or suggestion? Click here.




ElementValue
Catalog20442
NameLUSAT (LO-19)
Epoch Orbit87671
Epoch Day354.01195304
Epoch Year2025
RAAN5.7835
Inclination98.8956
Eccentricity0.0011819
Argument of Perigee16.8445
Mean Anonmoly343.3129
Mean Motion14.3404749
Decay Rate1.01E-06
L11 20442U 90005G 25354.01195304 .00000101 00000+0 52712-4 0 9990
L22 20442 98.8956 5.7835 0011819 16.8445 343.3129 14.34047490876715



Live tracking and technical data element details for LUSAT (LO-19) (NORAD 20442). LUSAT (LO-19) can be tracked NOW for your location showing map with azimuth and elevation plus other details from your city location.







IsCatalogInMostPopularTable: catalog: 20442, numindb: 419
Update: records affected: 1



GetName: 20442 LUSAT (LO-19)

Hit Count: updated at: Tue, 20 Jan 2026 18:47:20 GMT